UAL851 NZCH-SAWH

Flight info

Callsign UAL851
Flight time N/A
Altitude 32000
Route PEHRR A338 HELGE/N0489F330 DCT 50S180W 56S170W 60S160W/N0482F350 62S150W 64S140W 64S130W 64S120W 64S110W 62S100W/N0479F370 60S090W/N0481F360 56S080W/N0485F370 DCT NAS/N0453F230 B561 GRA T108 DABLI
Aircraft B77W/H-SDE1E2E3FGHIJ2J3J4J5M1RWXY/LB1D1

Departure

Time 2026-05-03 22:49
Airport Christchurch International Airport (NZCH)

Arrival

Time N/A
Airport Ushuaia - Malvinas Argentinas International Airport (SAWH)
Time Latitude Longitude Altitude Speed Heading
2026-05-03 22:48 -43.64039 172.50617 5958 ft 275 kts 188°
2026-05-03 22:49 -43.66031 172.50243 6721 ft 278 kts 188°
2026-05-03 22:49 -43.68160 172.49843 7568 ft 279 kts 188°
2026-05-03 22:49 -43.70091 172.49480 8290 ft 281 kts 189°
2026-05-03 22:49 -43.72042 172.49112 9021 ft 283 kts 189°
2026-05-03 22:50 -43.73967 172.48750 9724 ft 285 kts 189°
2026-05-03 22:50 -43.75922 172.48381 10393 ft 287 kts 189°
2026-05-03 22:50 -43.77948 172.47998 10866 ft 299 kts 189°
2026-05-03 22:50 -43.80071 172.47597 11184 ft 316 kts 189°
2026-05-03 22:51 -43.82303 172.47174 11505 ft 332 kts 189°
2026-05-03 22:51 -43.84619 172.46736 11859 ft 348 kts 189°
2026-05-03 22:51 -43.87093 172.46268 12241 ft 364 kts 189°
2026-05-03 22:51 -43.89642 172.45784 12631 ft 378 kts 189°
2026-05-03 22:52 -43.92281 172.45283 13067 ft 391 kts 189°
2026-05-03 22:52 -43.94990 172.44771 13696 ft 398 kts 189°
2026-05-03 22:52 -43.97738 172.44249 14435 ft 402 kts 189°
2026-05-03 22:52 -44.00510 172.43723 15168 ft 406 kts 189°
2026-05-03 22:53 -44.03312 172.43190 15859 ft 410 kts 189°
2026-05-03 22:53 -44.06115 172.42658 16530 ft 414 kts 189°
2026-05-03 22:53 -44.08980 172.42111 17202 ft 418 kts 189°
2026-05-03 22:53 -44.11827 172.41568 17848 ft 422 kts 189°
2026-05-03 22:54 -44.14778 172.41005 18519 ft 426 kts 189°
2026-05-03 22:54 -44.17701 172.40453 19192 ft 429 kts 188°
2026-05-03 22:54 -44.20660 172.39960 19857 ft 432 kts 188°
2026-05-03 22:54 -44.23652 172.39473 20494 ft 435 kts 188°
2026-05-03 22:55 -44.26678 172.38979 21133 ft 438 kts 188°
2026-05-03 22:55 -44.29702 172.38481 21770 ft 440 kts 188°
2026-05-03 22:55 -44.32726 172.37984 22353 ft 444 kts 188°
2026-05-03 22:55 -44.35794 172.37476 22927 ft 447 kts 188°
2026-05-03 22:56 -44.38916 172.36960 23520 ft 450 kts 188°
2026-05-03 22:56 -44.42003 172.36447 24050 ft 453 kts 188°
2026-05-03 22:56 -44.45163 172.35922 24549 ft 457 kts 188°
2026-05-03 22:56 -44.48311 172.35397 25045 ft 460 kts 188°
2026-05-03 22:57 -44.51507 172.34885 25534 ft 463 kts 189°
2026-05-03 22:57 -44.54719 172.34343 26013 ft 466 kts 189°
2026-05-03 22:57 -44.57938 172.33801 26491 ft 470 kts 189°
2026-05-03 22:57 -44.61166 172.33258 26953 ft 473 kts 189°
2026-05-03 22:58 -44.64433 172.32709 27394 ft 476 kts 189°
2026-05-03 22:58 -44.67742 172.32152 27842 ft 479 kts 189°
2026-05-03 22:58 -44.71058 172.31595 28283 ft 483 kts 189°
2026-05-03 22:58 -44.74404 172.31030 28688 ft 486 kts 189°
2026-05-03 22:59 -44.77753 172.30466 29081 ft 490 kts 189°
2026-05-03 22:59 -44.81141 172.29895 29482 ft 493 kts 189°
2026-05-03 22:59 -44.84563 172.29318 29931 ft 495 kts 189°
2026-05-03 22:59 -44.87980 172.28742 30560 ft 493 kts 189°
2026-05-03 23:00 -44.91378 172.28166 31276 ft 489 kts 189°
2026-05-03 23:00 -44.94746 172.27597 31918 ft 487 kts 189°
2026-05-03 23:00 -44.98109 172.27028 32414 ft 487 kts 189°
2026-05-03 23:01 -45.04874 172.25877 32470 ft 486 kts 189°
2026-05-03 23:01 -45.11592 172.24734 32472 ft 486 kts 189°
2026-05-03 23:02 -45.18338 172.24731 32469 ft 491 kts 174°
2026-05-03 23:02 -45.24875 172.27603 32482 ft 503 kts 156°
2026-05-03 23:02 -45.27876 172.30139 32832 ft 507 kts 146°
2026-05-03 23:03 -45.30588 172.33356 33380 ft 506 kts 138°
2026-05-03 23:03 -45.35599 172.40433 33460 ft 503 kts 137°
2026-05-03 23:04 -45.40497 172.47441 33461 ft 502 kts 137°
2026-05-03 23:04 -45.45399 172.54460 33459 ft 501 kts 137°
2026-05-03 23:05 -45.50302 172.61490 33455 ft 501 kts 137°
2026-05-03 23:05 -45.55212 172.68545 33451 ft 501 kts 136°
2026-05-03 23:06 -45.60123 172.75618 33466 ft 503 kts 136°
2026-05-03 23:06 -45.65014 172.82678 33467 ft 502 kts 136°
2026-05-03 23:07 -45.69913 172.89769 33470 ft 503 kts 136°
2026-05-03 23:07 -45.74819 172.96887 33467 ft 502 kts 136°
2026-05-03 23:08 -45.79712 173.04007 33466 ft 503 kts 136°
2026-05-03 23:08 -45.84591 173.11124 33472 ft 503 kts 136°
2026-05-03 23:09 -45.89497 173.18300 33470 ft 503 kts 136°
2026-05-03 23:09 -45.94372 173.25450 33466 ft 503 kts 136°
2026-05-03 23:10 -45.99255 173.32629 33475 ft 504 kts 136°
2026-05-03 23:10 -46.04140 173.39833 33470 ft 503 kts 136°
2026-05-03 23:11 -46.09003 173.47023 33473 ft 503 kts 137°
2026-05-03 23:11 -46.13873 173.54242 33474 ft 502 kts 136°
2026-05-03 23:12 -46.18735 173.61470 33478 ft 504 kts 137°
2026-05-03 23:12 -46.23575 173.68684 33475 ft 503 kts 136°
2026-05-03 23:13 -46.28445 173.75961 33478 ft 504 kts 136°
2026-05-03 23:13 -46.33277 173.83205 33470 ft 503 kts 136°
2026-05-03 23:14 -46.38132 173.90500 33475 ft 505 kts 136°
2026-05-03 23:14 -46.42996 173.97829 33480 ft 504 kts 136°
2026-05-03 23:15 -46.47837 174.05144 33480 ft 504 kts 136°
2026-05-03 23:15 -46.52681 174.12482 33475 ft 504 kts 136°
2026-05-03 23:16 -46.57494 174.19795 33467 ft 503 kts 136°
2026-05-03 23:16 -46.62322 174.27148 33473 ft 504 kts 136°
2026-05-03 23:17 -46.67137 174.34505 33467 ft 504 kts 136°
2026-05-03 23:17 -46.71972 174.41911 33465 ft 504 kts 136°
2026-05-03 23:18 -46.76762 174.49271 33477 ft 504 kts 136°
2026-05-03 23:18 -46.81571 174.56677 33470 ft 504 kts 136°
2026-05-03 23:19 -46.86377 174.64102 33484 ft 503 kts 136°
2026-05-03 23:19 -46.91163 174.71516 33466 ft 503 kts 136°
2026-05-03 23:20 -46.95947 174.78947 33465 ft 502 kts 136°
2026-05-03 23:20 -47.00728 174.86394 33459 ft 502 kts 136°
2026-05-03 23:21 -47.05505 174.93855 33459 ft 503 kts 136°
2026-05-03 23:21 -47.10270 175.01321 33461 ft 502 kts 136°
2026-05-03 23:22 -47.17389 175.12512 33464 ft 502 kts 136°
2026-05-03 23:22 -47.22135 175.19998 33462 ft 503 kts 136°
2026-05-03 23:23 -47.26872 175.27492 33456 ft 503 kts 136°
2026-05-03 23:23 -47.31625 175.35031 33463 ft 503 kts 136°
2026-05-03 23:24 -47.36375 175.42589 33458 ft 503 kts 136°
2026-05-03 23:24 -47.41138 175.50188 33455 ft 504 kts 136°
2026-05-03 23:25 -47.45867 175.57756 33452 ft 503 kts 136°
2026-05-03 23:25 -47.50594 175.65341 33451 ft 503 kts 135°
2026-05-03 23:26 -47.55322 175.72945 33448 ft 502 kts 135°
2026-05-03 23:26 -47.60036 175.80551 33442 ft 502 kts 135°